Regional Weather Roundup
Issued by NWS

Home | Current Version | Previous Version | Text Only | Print | Product List | Glossary Off
Versions: 1 2 3 4 5 6 7 8 9 10 11 12 13 14 15 16 17 18 19 20 21 22 23 24 25 26 27 28 29 30 31 32 33 34 35 36 37 38 39 40 41 42 43 44 45 46 47 48 49 50

000
ASUS43 KDTX 211110
RWRMI
MICHIGAN HOURLY REGIONAL WEATHER ROUNDUP
NATIONAL WEATHER SERVICE DETROIT/PONTIAC MI
600 AM EST TUE NOV 21 2017

NOTE: "FAIR" INDICATES FEW OR NO CLOUDS BELOW 12,000 FEET WITH NO
SIGNIFICANT WEATHER AND/OR OBSTRUCTION TO VISIBILITY.

MIZ047>049-052>055-059>063-066>070-074>076-081>083-211200-
SOUTHEAST LOWER MICHIGAN

CITY           SKY/WX    TMP DP  RH WIND       PRES   REMARKS
ADRIAN         PTCLDY    36  26  67 SW15      29.74S WCI  27
ALMA           CLOUDY    39  30  68 S10       29.59S WCI  32
ANN ARBOR      MOCLDY    37  26  64 S8        29.71S WCI  31
BAD AXE        CLOUDY    40  26  57 SW17      29.59S WCI  32
CARO           PTCLDY    39  27  60 S14G22    29.59S WCI  31
DETROIT CITY   CLOUDY   N/A N/A N/A SW13G24   29.72F
DETROIT        PTCLDY    39  26  59 SW20      29.73F WCI  29
FLINT          PTCLDY    40  25  55 SW12G22   29.64F WCI  33
GROSSE ILE     CLOUDY    40  26  57 SW15G23   29.73F WCI  32
HILLSDALE      PTCLDY    37  27  65 SW14G21   29.70S WCI  29
HOWELL         PTCLDY    40  27  59 S9        29.66F WCI  34

CITY           SKY/WX    TMP DP  RH WIND       PRES   REMARKS
JACKSON        PTCLDY    40  25  55 S16       29.68F WCI  31
LAMBERTVILLE   MOCLDY    41  26  53 SW13G21   29.75F
LANSING        MOCLDY    42  28  57 SW20G30   29.64F
LAPEER         FAIR      41  26  54 SW17G29   29.63F
MASON          MOCLDY    41  27  57 SW5       29.66S
MONROE         CLOUDY    41  25  52 SW13G21   29.74S
MT. CLEMENS    CLOUDY    40  26  56 SW16      29.69F WCI  32
PONTIAC        MOCLDY    37  26  64 S10       29.67F WCI  30
PORT HOPE        N/A     42  26  53 S10G23    29.54F
PORT HURON     PTCLDY    39  25  56 S14G23    29.68F WCI  31
TRI CITIES     PTCLDY    43  29  57 SW16G25   29.58S
MIDLAND        FAIR      41  29  62 SW12G20   29.56S
TROY           MOCLDY    41  25  52 S12       29.71F
SAGINAW HB     PTCLDY    41  28  60 SW16G26   29.58S
$$
MIZ043>046-050>051-056>058-064>065-071>073-077>080-211200-
SOUTHWEST LOWER MICHIGAN

CITY           SKY/WX    TMP DP  RH WIND       PRES   REMARKS
BATTLE CREEK   PTCLDY    40  28  62 SW20      29.67S WCI  30
BENTON HARBOR  PTCLDY    45  30  55 SW17G25   29.69R
BIG RAPIDS     CLEAR     43  33  66 SW14G25   29.52S
COLDWATER      PTCLDY    41  25  53 SW16G22   29.71R
FREMONT        FAIR      45  36  71 SW18G26   29.55S
HOLLAND        PTCLDY    47  35  63 SW29G39   29.63R
GRAND RAPIDS   MOCLDY    42  31  64 SW15      29.62R
IONIA          FAIR      43  29  58 SW18G25   29.61S
KALAMAZOO      CLOUDY    42  26  53 SW14      29.68R
LUDINGTON      MOCLDY    45  36  72 SW21G30   29.49F
MARSHALL       MOCLDY    41  26  55 SW16G22   29.68R
MOUNT PLEASANT PTCLDY    42  30  62 SW14G22   29.54F
MUSKEGON       CLOUDY    47  36  65 SW28G36   29.58S
SOUTH HAVEN    CLOUDY    46  34  62 SW18G25   29.66S
$$
MIZ016>042-211200-
NORTHERN LOWER MICHIGAN

CITY           SKY/WX    TMP DP  RH WIND       PRES   REMARKS
ALPENA         CLEAR     42  33  70 SW8       29.43S
BEAVER ISLAND  CLEAR     46  35  66 W20G30    29.36R
BELLAIRE       PTCLDY    46  36  69 SW9G18    29.41S
CADILLAC       MOCLDY    41  33  74 SW14G20   29.46S
CHARLEVOIX     CLEAR     46  35  67 SW8       29.41R
FRANKFORT      CLEAR     47  38  70 SW13G22   29.44R
GAYLORD        MOCLDY    40  31  70 SW17G24   29.39S WCI  31
GRAYLING       PTCLDY    41  32  70 SW13      29.43F
HARBOR SPRINGS PTCLDY    46  36  68 SW16G23   29.37R
MANISTEE       PTCLDY    45  35  68 SW10G22   29.46F
OSCODA         CLOUDY    40  27  59 SW15G22   29.49S WCI  31
PELLSTON       PTCLDY    46  35  65 SW9G22    29.37R
ROGERS CITY    CLEAR     43  33  68 SW10G18   29.39S
TRAVERSE CITY  CLOUDY    46  33  60 SW9G16    29.42S
$$
MIZ007>008-015-211200-
EASTERN UPPER MICHIGAN

CITY           SKY/WX    TMP DP  RH WIND       PRES   REMARKS
KINROSS        CLEAR     44  34  67 W12G20    29.34R
MACKINAC ISLAN CLOUDY    47  37  69 SW20G31   29.34R
NEWBERRY       PTCLDY    38  31  78 SW9       29.32R WCI  31
S. S. MARIE    PTCLDY    43  33  68 W15G21    29.31R
MUNISING         N/A     37  30  75 S7        29.32R WCI  32
$$
MIZ004>006-011>014-085-211200-
CENTRAL UPPER MICHIGAN

CITY           SKY/WX    TMP DP  RH WIND       PRES   REMARKS
MANISTIQUE     CLEAR     39  26  58 W8        29.34R WCI  33
ESCANABA       PTCLDY    38  29  70 SW12      29.38R WCI  30
MENOMINEE      CLEAR     42  27  55 W9G20     29.43R
SAWYER-GWINN   PTCLDY    36  26  66 W16G24    29.34R WCI  26
$$
MIZ001>003-009>011-084-211200-
WESTERN UPPER MICHIGAN

CITY           SKY/WX    TMP DP  RH WIND       PRES   REMARKS
IRON MOUNTAIN  PTCLDY    37  23  56 W13G23    29.37R WCI  29
HOUGHTON       FLURRIES  31  21  66 W28G41    29.34R WCI  17
COPPER HARBOR    N/A     35  26  69 NW18G36   29.30R WCI  24
IRONWOOD       FLURRIES  29  20  69 W22G33    29.48R WCI  15
$$

ABBREVIATIONS USED IN REMARKS
   TC - TEMPERATURE IN CELSIUS
  WCI - WIND CHILL INDEX
   HX - HEAT INDEX
  VSB - VISIBILITY





USA.gov is the U.S. government's official web portal to all federal, state and local government web resources and services.